Home > Weather > Kaliningrad > Past weeks

Flag for Russia Past Weather in Kaliningrad, Russia — Yesterday and Last 2 Weeks

Now
55 °F

Passing clouds.


Feels Like: 54 °F
Forecast: 42 / 67 °F
Wind: 6 mph from North

Location: Kaliningrad/Khrabrovo Airport

Current Time: May 26, 2016 at 6:29:50 PM

Latest Report: May 26, 2016 at 6:00 PM


Visibility: N/A

Pressure: 30.04 "Hg

Humidity: 72%

Dew Point: 46 °F

Location of KaliningradLocation

Past Weather in Kaliningrad — Graph

°F

Kaliningrad Temperature Yesterday

Maximum temperature yesterday: 68 °F (at 11:00 AM)
Minimum temperature yesterday: 50 °F (at 2:00 AM)
Average temperature yesterday: 60 °F

High & Low Weather Summary for the Past Weeks

 TemperatureHumidityPressure
High77 °F (May 23, 1:00 PM)100% (May 13, 5:30 AM)30.07 "Hg (May 13, 5:30 AM)
Low39 °F (May 18, 4:30 AM)36% (May 24, 3:00 PM)29.45 "Hg (May 14, 1:00 AM)
Average56 °F78%29.82 "Hg
* Reported May 11 5:00 PM — May 26 5:00 PM, Kaliningrad, Weather by CustomWeather, © 2016

Note: Actual official high and low records may vary slightly from our data, if they occured in-between our weather recording intervals... More about our weather records

Advertising

Kaliningrad Weather History for the Previous 24 Hours

Scroll right to see more
 ConditionsComfort  
Time TempWeatherWind HumidityBarometerVisibility
5:00 PM
Thu, May 26
55 °FPassing clouds.6 mph72%30.04 "HgN/A
4:30 PM57 °FScattered clouds.6 mph67%30.04 "HgN/A
4:00 PM55 °FScattered clouds.6 mph72%30.04 "HgN/A
3:30 PM55 °FScattered clouds.6 mph72%30.04 "HgN/A
3:00 PM57 °FPartly sunny.6 mph67%30.04 "HgN/A
2:30 PM55 °FPartly sunny.6 mph72%30.04 "HgN/A
2:00 PM57 °FPartly sunny.3 mph72%30.04 "HgN/A
1:30 PM55 °FPartly sunny.6 mph72%30.04 "HgN/A
1:00 PM57 °FPartly sunny.8 mph67%30.01 "HgN/A
12:30 PM55 °FPartly sunny.8 mph72%30.01 "HgN/A
12:00 PM55 °FPartly sunny.8 mph72%30.01 "HgN/A
11:30 AM55 °FPartly sunny.8 mph77%30.01 "HgN/A
11:00 AM54 °FPartly sunny.8 mph82%30.01 "HgN/A
10:00 AM54 °FOvercast.8 mph82%29.98 "HgN/A
9:00 AM52 °FOvercast.8 mph88%29.98 "HgN/A
8:30 AM52 °FLow clouds.8 mph94%29.98 "HgN/A
8:00 AM52 °FLow clouds.8 mph94%29.98 "HgN/A
7:30 AM52 °FLow clouds.8 mph94%29.95 "HgN/A
7:00 AM52 °FLow clouds.8 mph94%29.95 "Hg6 mi
6:30 AM52 °FLow clouds.10 mph94%29.95 "Hg5 mi
6:00 AM50 °FLow clouds.8 mph100%29.95 "Hg5 mi
5:30 AM50 °FLow clouds.8 mph100%29.95 "Hg5 mi
5:00 AM50 °FFog.10 mph100%29.92 "Hg3 mi
4:30 AM50 °FDrizzle. Fog.8 mph100%29.92 "Hg2 mi
4:00 AM50 °FDrizzle. Fog.8 mph100%29.92 "Hg1 mi
3:00 AM52 °FRain. Fog.10 mph100%29.92 "Hg1 mi
2:00 AM52 °FFog.8 mph100%29.92 "Hg2 mi
1:00 AM52 °FFog.8 mph100%29.89 "Hg3 mi
12:00 AM52 °FLow clouds.10 mph100%29.89 "Hg4 mi
11:00 PM
Wed, May 25
54 °FPassing clouds.10 mph94%29.89 "Hg5 mi
10:30 PM54 °FPassing clouds.13 mph94%29.89 "HgN/A
10:00 PM54 °FPassing clouds.10 mph100%29.89 "HgN/A
9:30 PM54 °FScattered clouds.8 mph100%29.86 "HgN/A
9:00 PM55 °FPassing clouds.8 mph94%29.86 "HgN/A
8:30 PM55 °FSunny.8 mph94%29.86 "Hg10 mi
8:00 PM57 °FPassing clouds.6 mph88%29.86 "HgN/A
7:30 PM59 °FPassing clouds.8 mph82%29.86 "HgN/A
7:00 PM59 °FSunny.8 mph82%29.86 "Hg10 mi
6:30 PM59 °FPassing clouds.6 mph82%29.86 "HgN/A
6:00 PM61 °FPassing clouds.8 mph77%29.83 "HgN/A
Weather by CustomWeather, © 2016

See weather overviewHow to use our weather pages